,,,PA_Meas_PMT16A,,PR_Meas_QMR101_102,,RH_Meas_QMH101,,SR_Meas_QMS101,,TA_Meas_QMH101,,GenWind,,GenWind,
date,time,status,PA,status,PR,status,RH,status,SR,status,TA,status,DirAvg,status,SpdAvg,
2010-09-07, 00:00:04,VALID,1010.89,VALID,0,VALID,103.047,VALID,0.105969,VALID,24.7835,VALID,204,VALID,0,
2010-09-07, 00:01:04,VALID,1010.87,VALID,0,VALID,103.047,VALID,0.105969,VALID,24.7835,VALID,204,VALID,0,
2010-09-07, 00:02:04,VALID,1010.9,VALID,0,VALID,103.039,VALID,0.105969,VALID,24.7835,VALID,204,VALID,0,
2010-09-07, 00:03:04,VALID,1010.86,VALID,0,VALID,103.047,VALID,0.105969,VALID,24.803,VALID,204,VALID,0,
2010-09-07, 00:04:04,VALID,1010.86,VALID,0,VALID,103.062,VALID,0.211938,VALID,24.803,VALID,204,VALID,0,
2010-09-07, 00:05:04,VALID,1010.84,VALID,0,VALID,103.077,VALID,0.105969,VALID,24.7835,VALID,204,VALID,0,
2010-09-07, 00:06:04,VALID,1010.83,VALID,0,VALID,103.085,VALID,0.105969,VALID,24.764,VALID,204,VALID,0,
2010-09-07, 00:07:04,VALID,1010.8,VALID,0,VALID,103.093,VALID,0.105969,VALID,24.7426,VALID,204,VALID,0,
2010-09-07, 00:08:05,VALID,1010.77,VALID,0,VALID,103.077,VALID,0.105969,VALID,24.7445,VALID,204,VALID,0,
2010-09-07, 00:09:05,VALID,1010.78,VALID,0,VALID,103.1,VALID,0.105969,VALID,24.7445,VALID,204,VALID,0,
2010-09-07, 00:10:05,VALID,1010.76,VALID,0,VALID,103.108,VALID,0.105969,VALID,24.7445,VALID,204,VALID,0,
2010-09-07, 00:11:05,VALID,1010.75,VALID,0,VALID,103.131,VALID,0.211938,VALID,24.7445,VALID,204,VALID,0,
2010-09-07, 00:12:05,VALID,1010.74,VALID,0,VALID,103.146,VALID,0.105969,VALID,24.7445,VALID,204,VALID,0.264844,
2010-09-07, 00:13:05,VALID,1010.71,VALID,0,VALID,103.169,VALID,0.211938,VALID,24.725,VALID,204,VALID,0.282813,
2010-09-07, 00:14:05,VALID,1010.7,VALID,0,VALID,103.161,VALID,0.105969,VALID,24.7055,VALID,204,VALID,0.0957031,
2010-09-07, 00:15:05,VALID,1010.68,VALID,0,VALID,103.169,VALID,0,VALID,24.7074,VALID,204,VALID,0,
2010-09-07, 00:16:05,VALID,1010.68,VALID,0,VALID,103.176,VALID,0,VALID,24.6879,VALID,204,VALID,0,
2010-09-07, 00:17:05,VALID,1010.66,VALID,0,VALID,103.184,VALID,0,VALID,24.6879,VALID,204,VALID,0,
2010-09-07, 00:18:05,VALID,1010.67,VALID,0,VALID,103.184,VALID,0,VALID,24.6684,VALID,204,VALID,0,
2010-09-07, 00:19:05,VALID,1010.68,VALID,0,VALID,103.215,VALID,0,VALID,24.6879,VALID,204,VALID,0,
2010-09-07, 00:20:05,VALID,1010.65,VALID,0,VALID,103.215,VALID,0,VALID,24.6471,VALID,204,VALID,0,
2010-09-07, 00:21:05,VALID,1010.65,VALID,0,VALID,103.199,VALID,0.105969,VALID,24.6666,VALID,204,VALID,0,
2010-09-07, 00:22:05,VALID,1010.63,VALID,0,VALID,103.207,VALID,0,VALID,24.6684,VALID,204,VALID,0,
2010-09-07, 00:23:05,VALID,1010.59,VALID,0,VALID,103.237,VALID,0,VALID,24.6684,VALID,204,VALID,0,
2010-09-07, 00:24:05,VALID,1010.62,VALID,0,VALID,103.222,VALID,0,VALID,24.6489,VALID,204,VALID,0,
2010-09-07, 00:25:05,VALID,1010.62,VALID,0,VALID,103.23,VALID,0,VALID,24.6489,VALID,204,VALID,0,
2010-09-07, 00:26:05,VALID,1010.58,VALID,0,VALID,103.23,VALID,0,VALID,24.6489,VALID,204,VALID,0,
2010-09-07, 00:27:05,VALID,1010.58,VALID,0,VALID,103.23,VALID,0,VALID,24.6489,VALID,204,VALID,0,
2010-09-07, 00:28:05,VALID,1010.6,VALID,0,VALID,103.26,VALID,0,VALID,24.6276,VALID,204,VALID,0,
2010-09-07, 00:29:05,VALID,1010.57,VALID,0,VALID,103.245,VALID,0.105969,VALID,24.6099,VALID,204,VALID,0,
2010-09-07, 00:30:05,VALID,1010.56,VALID,0,VALID,103.253,VALID,0,VALID,24.5905,VALID,204,VALID,0.174609,
2010-09-07, 00:31:05,VALID,1010.53,VALID,0,VALID,103.245,VALID,0,VALID,24.571,VALID,204,VALID,0.147656,
2010-09-07, 00:32:05,VALID,1010.53,VALID,0,VALID,103.237,VALID,0.105969,VALID,24.5515,VALID,204,VALID,0,
2010-09-07, 00:33:05,VALID,1010.48,VALID,0,VALID,103.26,VALID,0.105969,VALID,24.532,VALID,204,VALID,0,
2010-09-07, 00:34:05,VALID,1010.5,VALID,0,VALID,103.253,VALID,0,VALID,24.5515,VALID,204,VALID,0,
2010-09-07, 00:35:05,VALID,1010.45,VALID,0,VALID,103.253,VALID,0,VALID,24.532,VALID,204,VALID,0,
2010-09-07, 00:36:05,VALID,1010.47,VALID,0,VALID,103.26,VALID,0,VALID,24.532,VALID,204,VALID,0,
2010-09-07, 00:37:05,VALID,1010.43,VALID,0,VALID,103.276,VALID,0,VALID,24.493,VALID,204,VALID,0,
2010-09-07, 00:38:05,VALID,1010.43,VALID,0,VALID,103.268,VALID,0,VALID,24.493,VALID,204,VALID,0,
2010-09-07, 00:39:05,VALID,1010.4,VALID,0,VALID,103.276,VALID,0,VALID,24.4735,VALID,204,VALID,0,
2010-09-07, 00:40:05,VALID,1010.4,VALID,0,VALID,103.268,VALID,0.105969,VALID,24.4735,VALID,204,VALID,0,
2010-09-07, 00:41:05,VALID,1010.38,VALID,0,VALID,103.268,VALID,0,VALID,24.454,VALID,204,VALID,0,
2010-09-07, 00:42:05,VALID,1010.37,VALID,0,VALID,103.253,VALID,0,VALID,24.4345,VALID,204,VALID,0,
2010-09-07, 00:43:05,VALID,1010.37,VALID,0,VALID,103.268,VALID,0,VALID,24.415,VALID,204,VALID,0,
2010-09-07, 00:44:05,VALID,1010.36,VALID,0,VALID,103.276,VALID,0,VALID,24.415,VALID,204,VALID,0,
2010-09-07, 00:45:05,VALID,1010.32,VALID,0,VALID,103.276,VALID,0.105969,VALID,24.415,VALID,204,VALID,0,
2010-09-07, 00:46:05,VALID,1010.33,VALID,0,VALID,103.253,VALID,0.105969,VALID,24.3956,VALID,204,VALID,0,
2010-09-07, 00:47:05,VALID,1010.31,VALID,0,VALID,103.276,VALID,0,VALID,24.3956,VALID,204,VALID,0,
2010-09-07, 00:48:05,VALID,1010.28,VALID,0,VALID,103.245,VALID,0,VALID,24.3956,VALID,204,VALID,0,
2010-09-07, 00:49:05,VALID,1010.25,VALID,0,VALID,103.245,VALID,0,VALID,24.3956,VALID,204,VALID,0,
2010-09-07, 00:50:05,VALID,1010.25,VALID,0,VALID,103.253,VALID,0,VALID,24.3742,VALID,204,VALID,0,
2010-09-07, 00:51:05,VALID,1010.21,VALID,0,VALID,103.23,VALID,0.105969,VALID,24.3956,VALID,204,VALID,0,
2010-09-07, 00:52:05,VALID,1010.23,VALID,0,VALID,103.222,VALID,0.105969,VALID,24.3956,VALID,204,VALID,0,
2010-09-07, 00:53:05,VALID,1010.2,VALID,0,VALID,103.245,VALID,0,VALID,24.3956,VALID,204,VALID,0,
2010-09-07, 00:54:05,VALID,1010.21,VALID,0,VALID,103.222,VALID,0,VALID,24.3956,VALID,204,VALID,0,
2010-09-07, 00:55:05,VALID,1010.2,VALID,0,VALID,103.222,VALID,0,VALID,24.3956,VALID,204,VALID,0,
2010-09-07, 00:56:05,VALID,1010.2,VALID,0,VALID,103.245,VALID,0,VALID,24.3761,VALID,204,VALID,0,
2010-09-07, 00:57:05,VALID,1010.19,VALID,0,VALID,103.222,VALID,0,VALID,24.3956,VALID,204,VALID,0,
2010-09-07, 00:58:05,VALID,1010.2,VALID,0,VALID,103.237,VALID,0,VALID,24.3547,VALID,204,VALID,0,
2010-09-07, 00:59:05,VALID,1010.19,VALID,0,VALID,103.207,VALID,0.105969,VALID,24.3761,VALID,204,VALID,0,
2010-09-07, 01:00:05,VALID,1010.21,VALID,0,VALID,103.192,VALID,0.105969,VALID,24.3956,VALID,204,VALID,0,
2010-09-07, 01:01:05,VALID,1010.18,VALID,0,VALID,103.237,VALID,0,VALID,24.3761,VALID,204,VALID,0,
2010-09-07, 01:02:05,VALID,1010.19,VALID,0,VALID,103.215,VALID,0,VALID,24.3761,VALID,204,VALID,0,
2010-09-07, 01:03:05,VALID,1010.18,VALID,0,VALID,103.215,VALID,0,VALID,24.3761,VALID,204,VALID,0,
2010-09-07, 01:04:05,VALID,1010.17,VALID,0,VALID,103.222,VALID,0,VALID,24.3547,VALID,204,VALID,0,
2010-09-07, 01:05:05,VALID,1010.16,VALID,0,VALID,103.222,VALID,0.105969,VALID,24.3761,VALID,204,VALID,0,
2010-09-07, 01:06:05,VALID,1010.13,VALID,0,VALID,103.207,VALID,0,VALID,24.3566,VALID,204,VALID,0,
2010-09-07, 01:07:05,VALID,1010.12,VALID,0,VALID,103.192,VALID,0,VALID,24.3779,VALID,204,VALID,0,
2010-09-07, 01:08:05,VALID,1010.12,VALID,0,VALID,103.192,VALID,0,VALID,24.3566,VALID,204,VALID,0,
2010-09-07, 01:09:05,VALID,1010.11,VALID,0,VALID,103.192,VALID,0,VALID,24.3566,VALID,204,VALID,0,
2010-09-07, 01:10:05,VALID,1010.11,VALID,0,VALID,103.207,VALID,0,VALID,24.3371,VALID,204,VALID,0,
2010-09-07, 01:11:05,VALID,1010.09,VALID,0,VALID,103.23,VALID,0,VALID,24.3176,VALID,204,VALID,0,
2010-09-07, 01:12:05,VALID,1010.09,VALID,0,VALID,103.222,VALID,0,VALID,24.2786,VALID,204,VALID,0,
2010-09-07, 01:13:05,VALID,1010.08,VALID,0,VALID,103.237,VALID,0,VALID,24.2786,VALID,204,VALID,0,
2010-09-07, 01:14:05,VALID,1010.03,VALID,0,VALID,103.215,VALID,0,VALID,24.2786,VALID,204,VALID,0,
2010-09-07, 01:15:05,VALID,1010,VALID,0,VALID,103.222,VALID,0,VALID,24.2591,VALID,204,VALID,0,
2010-09-07, 01:16:05,VALID,1009.96,VALID,0,VALID,103.222,VALID,0,VALID,24.2591,VALID,204,VALID,0,
2010-09-07, 01:17:05,VALID,1009.96,VALID,0,VALID,103.23,VALID,0,VALID,24.2396,VALID,204,VALID,0,
2010-09-07, 01:18:05,VALID,1009.97,VALID,0,VALID,103.199,VALID,0,VALID,24.2396,VALID,204,VALID,0,
2010-09-07, 01:19:05,VALID,1009.96,VALID,0,VALID,103.207,VALID,0,VALID,24.2396,VALID,204,VALID,0,
2010-09-07, 01:20:05,VALID,1009.92,VALID,0,VALID,103.199,VALID,0,VALID,24.2396,VALID,204,VALID,0,
2010-09-07, 01:21:05,VALID,1009.92,VALID,0,VALID,103.199,VALID,0,VALID,24.2396,VALID,204,VALID,0,
2010-09-07, 01:22:05,VALID,1009.91,VALID,0,VALID,103.184,VALID,0,VALID,24.2396,VALID,204,VALID,0,
2010-09-07, 01:23:05,VALID,1009.88,VALID,0,VALID,103.169,VALID,0,VALID,24.2591,VALID,204,VALID,0,
2010-09-07, 01:24:05,VALID,1009.89,VALID,0,VALID,103.184,VALID,0,VALID,24.2591,VALID,204,VALID,0,
2010-09-07, 01:25:05,VALID,1009.89,VALID,0,VALID,103.184,VALID,0,VALID,24.2396,VALID,204,VALID,0,
2010-09-07, 01:26:05,VALID,1009.88,VALID,0,VALID,103.169,VALID,0,VALID,24.2396,VALID,204,VALID,0,
2010-09-07, 01:27:05,VALID,1009.86,VALID,0,VALID,103.161,VALID,0,VALID,24.2591,VALID,204,VALID,0.219531,
2010-09-07, 01:28:05,VALID,1009.86,VALID,0,VALID,103.161,VALID,0,VALID,24.2396,VALID,204,VALID,0.230859,
2010-09-07, 01:29:05,VALID,1009.86,VALID,0,VALID,103.161,VALID,0,VALID,24.2396,VALID,204,VALID,0.130469,
2010-09-07, 01:30:05,VALID,1009.84,VALID,0,VALID,103.169,VALID,0,VALID,24.2202,VALID,204,VALID,0,
2010-09-07, 01:31:05,VALID,1009.83,VALID,0,VALID,103.154,VALID,0,VALID,24.2396,VALID,204,VALID,0,
2010-09-07, 01:32:05,VALID,1009.8,VALID,0,VALID,103.123,VALID,0,VALID,24.2396,VALID,204,VALID,0.369141,
2010-09-07, 01:33:05,VALID,1009.82,VALID,0,VALID,103.115,VALID,0,VALID,24.2396,VALID,272,VALID,0.423047,
2010-09-07, 01:34:05,VALID,1009.81,VALID,0,VALID,103.131,VALID,0,VALID,24.2805,VALID,344,VALID,0.259766,
2010-09-07, 01:35:05,VALID,1009.81,VALID,0,VALID,103.138,VALID,0,VALID,24.2591,VALID,344,VALID,0.448047,
2010-09-07, 01:36:05,VALID,1009.78,VALID,0,VALID,103.123,VALID,0,VALID,24.2396,VALID,344,VALID,0.338672,
2010-09-07, 01:37:05,VALID,1009.81,VALID,0,VALID,103.146,VALID,0,VALID,24.2396,VALID,344,VALID,0.300391,
2010-09-07, 01:38:05,VALID,1009.81,VALID,0,VALID,103.138,VALID,0,VALID,24.2396,VALID,344,VALID,0.218359,
2010-09-07, 01:39:05,VALID,1009.78,VALID,0,VALID,103.108,VALID,0,VALID,24.2202,VALID,344,VALID,0,
2010-09-07, 01:40:05,VALID,1009.76,VALID,0,VALID,103.146,VALID,0,VALID,24.2202,VALID,344,VALID,0.220703,
2010-09-07, 01:41:05,VALID,1009.77,VALID,0,VALID,103.138,VALID,0,VALID,24.2007,VALID,344,VALID,0,
2010-09-07, 01:42:05,VALID,1009.74,VALID,0,VALID,103.146,VALID,0,VALID,24.2202,VALID,344,VALID,0,
2010-09-07, 01:43:05,VALID,1009.73,VALID,0,VALID,103.146,VALID,0,VALID,24.2007,VALID,344,VALID,0,
2010-09-07, 01:44:05,VALID,1009.75,VALID,0,VALID,103.154,VALID,0,VALID,24.1812,VALID,344,VALID,0,
2010-09-07, 01:45:05,VALID,1009.76,VALID,0,VALID,103.146,VALID,0,VALID,24.1812,VALID,344,VALID,0,
2010-09-07, 01:46:05,VALID,1009.74,VALID,0,VALID,103.131,VALID,0,VALID,24.1812,VALID,344,VALID,0,
2010-09-07, 01:47:05,VALID,1009.74,VALID,0,VALID,103.146,VALID,0,VALID,24.1812,VALID,344,VALID,0,
2010-09-07, 01:48:05,VALID,1009.74,VALID,0,VALID,103.115,VALID,0,VALID,24.1617,VALID,344,VALID,0,
2010-09-07, 01:49:05,VALID,1009.73,VALID,0,VALID,103.123,VALID,0,VALID,24.1812,VALID,344,VALID,0,
2010-09-07, 01:50:05,VALID,1009.74,VALID,0,VALID,103.123,VALID,0,VALID,24.1812,VALID,344,VALID,0,
2010-09-07, 01:51:05,VALID,1009.74,VALID,0,VALID,103.115,VALID,0,VALID,24.1812,VALID,344,VALID,0,
2010-09-07, 01:52:05,VALID,1009.72,VALID,0,VALID,103.115,VALID,0,VALID,24.1617,VALID,344,VALID,0,
2010-09-07, 01:53:05,VALID,1009.74,VALID,0,VALID,103.1,VALID,0,VALID,24.1617,VALID,344,VALID,0,
2010-09-07, 01:54:05,VALID,1009.73,VALID,0,VALID,103.108,VALID,0,VALID,24.1617,VALID,344,VALID,0,
2010-09-07, 01:55:05,VALID,1009.73,VALID,0,VALID,103.115,VALID,0,VALID,24.1404,VALID,344,VALID,0,
2010-09-07, 01:56:05,VALID,1009.71,VALID,0,VALID,103.085,VALID,0,VALID,24.1617,VALID,344,VALID,0,
2010-09-07, 01:57:05,VALID,1009.69,VALID,0,VALID,103.1,VALID,0,VALID,24.1617,VALID,344,VALID,0,
2010-09-07, 01:58:05,VALID,1009.66,VALID,0,VALID,103.1,VALID,0,VALID,24.183,VALID,344,VALID,0,
2010-09-07, 01:59:05,VALID,1009.65,VALID,0,VALID,103.108,VALID,0,VALID,24.1422,VALID,344,VALID,0,
2010-09-07, 02:00:05,VALID,1009.65,VALID,0,VALID,103.1,VALID,0,VALID,24.1617,VALID,344,VALID,0,
2010-09-07, 02:01:05,VALID,1009.59,VALID,0,VALID,103.108,VALID,0,VALID,24.1617,VALID,344,VALID,0,
2010-09-07, 02:02:05,VALID,1009.58,VALID,0,VALID,103.093,VALID,0,VALID,24.1422,VALID,344,VALID,0,
2010-09-07, 02:03:05,VALID,1009.56,VALID,0,VALID,103.115,VALID,0,VALID,24.1422,VALID,344,VALID,0,
2010-09-07, 02:04:05,VALID,1009.55,VALID,0,VALID,103.1,VALID,0,VALID,24.1422,VALID,344,VALID,0,
2010-09-07, 02:05:05,VALID,1009.54,VALID,0,VALID,103.085,VALID,0,VALID,24.1422,VALID,344,VALID,0,
2010-09-07, 02:06:05,VALID,1009.51,VALID,0,VALID,103.077,VALID,0,VALID,24.1422,VALID,344,VALID,0,
2010-09-07, 02:07:05,VALID,1009.52,VALID,0,VALID,103.093,VALID,0,VALID,24.1422,VALID,344,VALID,0,
2010-09-07, 02:08:05,VALID,1009.5,VALID,0,VALID,103.1,VALID,0,VALID,24.1422,VALID,344,VALID,0,
2010-09-07, 02:09:05,VALID,1009.48,VALID,0,VALID,103.085,VALID,0,VALID,24.1227,VALID,344,VALID,0,
2010-09-07, 02:10:05,VALID,1009.47,VALID,0,VALID,103.1,VALID,0,VALID,24.1227,VALID,344,VALID,0.065625,
2010-09-07, 02:11:05,VALID,1009.47,VALID,0,VALID,103.1,VALID,0,VALID,24.1227,VALID,344,VALID,0,
2010-09-07, 02:12:05,VALID,1009.46,VALID,0,VALID,103.085,VALID,0,VALID,24.1245,VALID,344,VALID,0,
2010-09-07, 02:13:05,VALID,1009.45,VALID,0,VALID,103.1,VALID,0,VALID,24.1227,VALID,344,VALID,0,
2010-09-07, 02:14:05,VALID,1009.43,VALID,0,VALID,103.108,VALID,0,VALID,24.1032,VALID,344,VALID,0,
2010-09-07, 02:15:05,VALID,1009.38,VALID,0,VALID,103.1,VALID,0,VALID,24.1032,VALID,344,VALID,0,
2010-09-07, 02:16:05,VALID,1009.39,VALID,0,VALID,103.085,VALID,0,VALID,24.1032,VALID,344,VALID,0,
2010-09-07, 02:17:05,VALID,1009.37,VALID,0,VALID,103.108,VALID,0,VALID,24.1032,VALID,344,VALID,0,
2010-09-07, 02:18:05,VALID,1009.37,VALID,0,VALID,103.085,VALID,0,VALID,24.0837,VALID,344,VALID,0,
2010-09-07, 02:19:05,VALID,1009.35,VALID,0,VALID,103.077,VALID,0,VALID,24.0837,VALID,344,VALID,0,
2010-09-07, 02:20:05,VALID,1009.35,VALID,0,VALID,103.108,VALID,0,VALID,24.1032,VALID,344,VALID,0,
2010-09-07, 02:21:05,VALID,1009.34,VALID,0,VALID,103.077,VALID,0,VALID,24.0837,VALID,344,VALID,0,
2010-09-07, 02:22:05,VALID,1009.34,VALID,0,VALID,103.062,VALID,0,VALID,24.0837,VALID,344,VALID,0,
2010-09-07, 02:23:05,VALID,1009.3,VALID,0,VALID,103.054,VALID,0,VALID,24.0624,VALID,344,VALID,0,
2010-09-07, 02:24:05,VALID,1009.32,VALID,0,VALID,103.07,VALID,0,VALID,24.0837,VALID,344,VALID,0,
2010-09-07, 02:25:05,VALID,1009.28,VALID,0,VALID,103.054,VALID,0,VALID,24.0837,VALID,344,VALID,0,
2010-09-07, 02:26:05,VALID,1009.28,VALID,0,VALID,103.085,VALID,0,VALID,24.0429,VALID,344,VALID,0,
2010-09-07, 02:27:05,VALID,1009.25,VALID,0,VALID,103.1,VALID,0,VALID,24.0837,VALID,344,VALID,0,
2010-09-07, 02:28:05,VALID,1009.24,VALID,0,VALID,103.077,VALID,0,VALID,24.0448,VALID,344,VALID,0,
2010-09-07, 02:29:05,VALID,1009.23,VALID,0,VALID,103.093,VALID,0,VALID,24.0448,VALID,344,VALID,0,
2010-09-07, 02:30:05,VALID,1009.22,VALID,0,VALID,103.077,VALID,0,VALID,24.0643,VALID,344,VALID,0.00820312,
2010-09-07, 02:31:05,VALID,1009.21,VALID,0,VALID,103.093,VALID,0,VALID,24.0448,VALID,344,VALID,0,
2010-09-07, 02:32:05,VALID,1009.21,VALID,0,VALID,103.093,VALID,0,VALID,24.0253,VALID,344,VALID,0,
2010-09-07, 02:33:05,VALID,1009.18,VALID,0,VALID,103.077,VALID,0,VALID,24.0235,VALID,344,VALID,0,
2010-09-07, 02:34:05,VALID,1009.17,VALID,0,VALID,103.085,VALID,0,VALID,24.0448,VALID,344,VALID,0,
2010-09-07, 02:35:05,VALID,1009.14,VALID,0,VALID,103.085,VALID,0,VALID,24.0058,VALID,344,VALID,0,
2010-09-07, 02:36:05,VALID,1009.1,VALID,0,VALID,103.077,VALID,0,VALID,24.0253,VALID,344,VALID,0,
2010-09-07, 02:37:05,VALID,1009.12,VALID,0,VALID,103.093,VALID,0,VALID,24.0058,VALID,344,VALID,0,
2010-09-07, 02:38:05,VALID,1009.11,VALID,0,VALID,103.07,VALID,0,VALID,24.0058,VALID,344,VALID,0,
2010-09-07, 02:39:05,VALID,1009.12,VALID,0,VALID,103.054,VALID,0,VALID,24.0058,VALID,344,VALID,0,
2010-09-07, 02:40:05,VALID,1009.08,VALID,0,VALID,103.07,VALID,0,VALID,24.0058,VALID,344,VALID,0,
2010-09-07, 02:41:05,VALID,1009.06,VALID,0,VALID,103.047,VALID,0,VALID,24.0058,VALID,344,VALID,0,
2010-09-07, 02:42:05,VALID,1009.07,VALID,0,VALID,103.047,VALID,0,VALID,24.0253,VALID,344,VALID,0,
2010-09-07, 02:43:05,VALID,1009.02,VALID,0,VALID,103.032,VALID,0,VALID,24.0253,VALID,344,VALID,0,
2010-09-07, 02:44:05,VALID,1009.03,VALID,0,VALID,103.054,VALID,0,VALID,24.0253,VALID,344,VALID,0,
2010-09-07, 02:45:05,VALID,1009.01,VALID,0,VALID,103.054,VALID,0,VALID,24.004,VALID,344,VALID,0,
2010-09-07, 02:46:05,VALID,1008.99,VALID,0,VALID,103.009,VALID,0,VALID,24.004,VALID,344,VALID,0,
2010-09-07, 02:47:05,VALID,1008.97,VALID,0,VALID,103.047,VALID,0,VALID,24.0235,VALID,344,VALID,0,
2010-09-07, 02:48:05,VALID,1008.97,VALID,0,VALID,103.032,VALID,0.105969,VALID,24.0253,VALID,344,VALID,0,
2010-09-07, 02:49:05,VALID,1008.96,VALID,0,VALID,103.039,VALID,0,VALID,24.0466,VALID,344,VALID,0,
2010-09-07, 02:50:05,VALID,1008.95,VALID,0,VALID,103.032,VALID,0,VALID,24.0235,VALID,344,VALID,0,
2010-09-07, 02:51:05,VALID,1008.95,VALID,0,VALID,103.016,VALID,0.105969,VALID,24.0253,VALID,344,VALID,0,
2010-09-07, 02:52:05,VALID,1008.94,VALID,0,VALID,103.016,VALID,0,VALID,24.0448,VALID,344,VALID,0,
2010-09-07, 02:53:05,VALID,1008.91,VALID,0,VALID,103.016,VALID,0,VALID,24.0448,VALID,344,VALID,0,
2010-09-07, 02:54:05,VALID,1008.9,VALID,0,VALID,103.024,VALID,0,VALID,24.0253,VALID,344,VALID,0,
2010-09-07, 02:55:04,VALID,1008.9,VALID,0,VALID,103.039,VALID,0,VALID,24.0253,VALID,344,VALID,0,
2010-09-07, 02:56:04,VALID,1008.9,VALID,0,VALID,103.016,VALID,0,VALID,24.0253,VALID,344,VALID,0,
2010-09-07, 02:57:04,VALID,1008.87,VALID,0,VALID,103.009,VALID,0,VALID,24.0253,VALID,344,VALID,0,
2010-09-07, 02:58:04,VALID,1008.91,VALID,0,VALID,103.016,VALID,0,VALID,24.0253,VALID,344,VALID,0,
2010-09-07, 02:59:04,VALID,1008.88,VALID,0,VALID,103.032,VALID,0,VALID,24.0253,VALID,344,VALID,0,
2010-09-07, 03:00:04,VALID,1008.9,VALID,0,VALID,103.032,VALID,0,VALID,24.0253,VALID,344,VALID,0,
2010-09-07, 03:01:04,VALID,1008.89,VALID,0,VALID,103.024,VALID,0,VALID,24.004,VALID,344,VALID,0,
2010-09-07, 03:02:04,VALID,1008.88,VALID,0,VALID,103.032,VALID,0,VALID,24.0253,VALID,344,VALID,0,
2010-09-07, 03:03:04,VALID,1008.87,VALID,0,VALID,103.009,VALID,0,VALID,24.0253,VALID,344,VALID,0,
2010-09-07, 03:04:04,VALID,1008.87,VALID,0,VALID,103.016,VALID,0.105969,VALID,24.0253,VALID,344,VALID,0,
2010-09-07, 03:05:04,VALID,1008.86,VALID,0,VALID,103.024,VALID,0,VALID,24.004,VALID,344,VALID,0,
2010-09-07, 03:06:04,VALID,1008.86,VALID,0,VALID,103.032,VALID,0,VALID,24.0253,VALID,344,VALID,0,
2010-09-07, 03:07:04,VALID,1008.87,VALID,0,VALID,103.001,VALID,0,VALID,24.0253,VALID,344,VALID,0,
2010-09-07, 03:08:04,VALID,1008.86,VALID,0,VALID,103.009,VALID,0,VALID,24.0253,VALID,344,VALID,0,
2010-09-07, 03:09:04,VALID,1008.9,VALID,0,VALID,103.009,VALID,0,VALID,24.0253,VALID,344,VALID,0,
2010-09-07, 03:10:04,VALID,1008.9,VALID,0,VALID,103.016,VALID,0,VALID,24.004,VALID,344,VALID,0,
2010-09-07, 03:11:04,VALID,1008.91,VALID,0,VALID,103.009,VALID,0,VALID,24.004,VALID,344,VALID,0,
2010-09-07, 03:12:04,VALID,1008.94,VALID,0,VALID,103.024,VALID,0,VALID,24.0253,VALID,344,VALID,0,
2010-09-07, 03:13:04,VALID,1008.94,VALID,0,VALID,103.024,VALID,0,VALID,24.0253,VALID,344,VALID,0,
2010-09-07, 03:14:04,VALID,1008.96,VALID,0,VALID,103.024,VALID,0,VALID,24.0253,VALID,344,VALID,0,
2010-09-07, 03:15:04,VALID,1008.99,VALID,0,VALID,103.001,VALID,0,VALID,24.0253,VALID,344,VALID,0,
2010-09-07, 03:16:04,VALID,1008.97,VALID,0,VALID,103.024,VALID,0,VALID,24.0253,VALID,344,VALID,0,
2010-09-07, 03:17:04,VALID,1008.99,VALID,0,VALID,103.016,VALID,0,VALID,24.0058,VALID,344,VALID,0,
2010-09-07, 03:18:04,VALID,1008.97,VALID,0,VALID,103.001,VALID,0,VALID,24.004,VALID,344,VALID,0,
2010-09-07, 03:19:04,VALID,1008.97,VALID,0,VALID,103.001,VALID,0,VALID,23.9845,VALID,344,VALID,0,
2010-09-07, 03:20:04,VALID,1009,VALID,0,VALID,103.039,VALID,0,VALID,24.0253,VALID,344,VALID,0,
2010-09-07, 03:21:04,VALID,1008.96,VALID,0,VALID,103.024,VALID,0,VALID,24.0058,VALID,344,VALID,0,
2010-09-07, 03:22:04,VALID,1008.95,VALID,0,VALID,103.024,VALID,0,VALID,24.0058,VALID,344,VALID,0,
2010-09-07, 03:23:04,VALID,1008.95,VALID,0,VALID,103.024,VALID,0,VALID,24.0058,VALID,344,VALID,0,
2010-09-07, 03:24:04,VALID,1008.96,VALID,0,VALID,103.009,VALID,0,VALID,24.0253,VALID,344,VALID,0,
2010-09-07, 03:25:04,VALID,1008.96,VALID,0,VALID,103.016,VALID,0,VALID,24.0058,VALID,344,VALID,0,
2010-09-07, 03:26:04,VALID,1008.97,VALID,0,VALID,103.032,VALID,0.105969,VALID,23.9845,VALID,344,VALID,0,
2010-09-07, 03:27:04,VALID,1008.97,VALID,0,VALID,103.039,VALID,0,VALID,23.9845,VALID,344,VALID,0,
2010-09-07, 03:28:04,VALID,1008.96,VALID,0,VALID,103.016,VALID,0,VALID,23.9845,VALID,344,VALID,0,
2010-09-07, 03:29:04,VALID,1008.98,VALID,0,VALID,103.032,VALID,0,VALID,24.0058,VALID,344,VALID,0,
2010-09-07, 03:30:04,VALID,1009.01,VALID,0,VALID,103.024,VALID,0,VALID,24.0058,VALID,344,VALID,0,
2010-09-07, 03:31:04,VALID,1008.98,VALID,0,VALID,103.024,VALID,0.105969,VALID,24.0058,VALID,344,VALID,0,
2010-09-07, 03:32:04,VALID,1008.98,VALID,0,VALID,103.047,VALID,0,VALID,23.9863,VALID,344,VALID,0,
2010-09-07, 03:33:04,VALID,1008.97,VALID,0,VALID,103.054,VALID,0,VALID,23.9668,VALID,344,VALID,0,
2010-09-07, 03:34:04,VALID,1009,VALID,0,VALID,103.062,VALID,0,VALID,23.9668,VALID,344,VALID,0,
2010-09-07, 03:35:04,VALID,1008.98,VALID,0,VALID,103.062,VALID,0,VALID,23.9455,VALID,344,VALID,0,
2010-09-07, 03:36:04,VALID,1008.99,VALID,0,VALID,103.054,VALID,0,VALID,23.9473,VALID,344,VALID,0,
2010-09-07, 03:37:04,VALID,1008.98,VALID,0,VALID,103.07,VALID,0,VALID,23.9473,VALID,344,VALID,0,
2010-09-07, 03:38:04,VALID,1009,VALID,0,VALID,103.062,VALID,0,VALID,23.9473,VALID,344,VALID,0,
2010-09-07, 03:39:04,VALID,1009,VALID,0,VALID,103.047,VALID,0,VALID,23.9065,VALID,344,VALID,0,
2010-09-07, 03:40:04,VALID,1009.01,VALID,0,VALID,103.062,VALID,0.105969,VALID,23.9473,VALID,344,VALID,0,
2010-09-07, 03:41:04,VALID,1008.99,VALID,0,VALID,103.039,VALID,0.105969,VALID,23.9278,VALID,344,VALID,0,
2010-09-07, 03:42:04,VALID,1008.98,VALID,0,VALID,103.039,VALID,0,VALID,23.9473,VALID,344,VALID,0,
2010-09-07, 03:43:04,VALID,1008.97,VALID,0,VALID,103.032,VALID,0,VALID,23.9473,VALID,344,VALID,0,
2010-09-07, 03:44:04,VALID,1008.98,VALID,0,VALID,103.032,VALID,0,VALID,23.926,VALID,344,VALID,0,
2010-09-07, 03:45:04,VALID,1008.97,VALID,0,VALID,103.032,VALID,0,VALID,23.9473,VALID,344,VALID,0,
2010-09-07, 03:46:04,VALID,1008.95,VALID,0,VALID,103.039,VALID,0,VALID,23.9473,VALID,344,VALID,0,
2010-09-07, 03:47:04,VALID,1008.97,VALID,0,VALID,103.016,VALID,0.105969,VALID,23.9455,VALID,344,VALID,0,
2010-09-07, 03:48:04,VALID,1008.98,VALID,0,VALID,103.009,VALID,0,VALID,23.9668,VALID,344,VALID,0,
2010-09-07, 03:49:04,VALID,1009,VALID,0,VALID,103.016,VALID,0,VALID,23.965,VALID,344,VALID,0,
2010-09-07, 03:50:04,VALID,1009.01,VALID,0,VALID,102.993,VALID,0.105969,VALID,23.965,VALID,344,VALID,0,
2010-09-07, 03:51:04,VALID,1008.99,VALID,0,VALID,103.001,VALID,0,VALID,23.9863,VALID,344,VALID,0.261719,
2010-09-07, 03:52:04,VALID,1008.99,VALID,0,VALID,103.001,VALID,0,VALID,23.965,VALID,344,VALID,0.157031,
2010-09-07, 03:53:04,VALID,1009.02,VALID,0,VALID,103.009,VALID,0,VALID,23.965,VALID,344,VALID,0,
2010-09-07, 03:54:04,VALID,1009,VALID,0,VALID,103.016,VALID,0.105969,VALID,23.965,VALID,344,VALID,0,
2010-09-07, 03:55:04,VALID,1009,VALID,0,VALID,103.024,VALID,0,VALID,23.9863,VALID,344,VALID,0,
2010-09-07, 03:56:04,VALID,1009.01,VALID,0,VALID,103.039,VALID,0,VALID,23.9668,VALID,344,VALID,0,